TIME,DELAY(SENSOR),PRES,OXYGEN,RAWTEMP,T(OPTODE),TCPHASE,FLUOR,BETA(BETA700),BETA(BETA412),BETA(BETA440),CDOM,C(CSC),ED(ED411.90),ED(ED443.80),ED(ED489.40),ED(ED554.70),LU(LU412.20),LU(LU443.80),LU(LU489.40),LU(LU555.00),COMP,TILTX,TILTY,CHECK
1342909059,5806,843.4299926757812000,172.8827056884765600,390.3348999023437500,10.8971099853515620,37.8631286621093750,53,100,97,79,80,14252,2146955282,2147515044,2147282998,2147502701,2147092617,2146930925,2147697014,2147120448,2522,-2,8,6984
1342912655,5807,971.7899780273438000,186.1865997314453000,475.7503967285156000,8.2799119949340820,38.3635101318359400,52,103,99,80,81,14242,2146955062,2147516617,2147293202,2147514605,2147089764,2146920265,2147712274,2147117632,195,-2,8,30683
1342916255,5808,996.2700195312500000,199.2174987792968800,494.0531005859375000,7.7138729095458980,37.8441505432128900,52,99,100,80,81,14243,2146955291,2147520548,2147291346,2147520356,2147092763,2146917842,2147716525,2147120192,22,-2,8,22821
1342919855,5804,1001.5399780273438000,200.7400054931640600,495.4656982421875000,7.6700968742370605,37.7744789123535160,53,99,99,79,81,14241,2146957147,2147517915,2147293220,2147521106,2147094454,2146919469,2147715291,2147116681,239,-1,8,34864
1342923455,5808,1004.8400268554688000,201.6139984130859400,497.3406066894531000,7.6119761466979980,37.7539787292480500,53,102,100,79,81,14230,2146958281,2147519652,2147293942,2147520091,2147089325,2146918720,2147717942,2147119277,381,-1,8,9173
1342927055,5806,1009.3499755859375000,201.2261962890625000,497.6611022949219000,7.6020369529724120,37.7829017639160160,53,101,99,80,82,14233,2146956196,2147518902,2147293184,2147522614,2147090093,2146919606,2147715574,2147117376,889,-1,8,60941
1342930655,5805,1012.3499755859375000,202.3796997070312500,499.7228088378906000,7.5380949974060060,37.7481994628906250,53,100,100,79,81,14233,2146959579,2147513334,2147293083,2147523108,2147089947,2146919323,2147715648,2147116416,559,-1,8,27196
1342934255,5805,1015.5300292968750000,201.9329071044922000,499.3565063476562500,7.5494551658630370,37.7687606811523440,53,108,100,79,81,14229,2146956772,2147519734,2147295524,2147518555,2147088777,2146921609,2147719515,2147120146,630,-1,8,44781
1342937855,5805,1016.9899902343750000,201.5196075439453000,498.5036010742187500,7.5759119987487790,37.7798309326171900,53,123,100,78,82,14210,2146957001,2147520036,2147295350,2147520009,2147092333,2146917604,2147722450,2147121216,1001,-1,8,58439
1342941455,5807,1021.4699707031250000,201.6392059326172000,499.4339904785156000,7.5470509529113770,37.7881011962890600,52,102,102,80,81,14209,2146958070,2147516333,2147294646,2147521453,2147090230,2146917476,2147718601,2147119926,799,-1,8,55936
1342945055,5805,1022.0399780273438000,202.9808044433593800,499.7062072753906000,7.5386071205139160,37.7107810974121100,52,103,100,78,81,14206,2146956205,2147518656,2147292553,2147521353,2147089462,2146929572,2147717110,2147119277,2652,-1,8,24968
1342948655,5808,1015.4099731445312000,203.1804046630859400,501.0983886718750000,7.4954137802124020,37.7230987548828100,53,109,101,80,82,14207,2146959744,2147515940,2147293760,2147521097,2147092059,2146921179,2147720027,2147120448,341,-2,8,52826
1342952255,5807,1012.1900024414062000,204.0722045898437500,503.5510864257812500,7.4192838668823240,37.7126808166503900,52,102,101,80,82,14206,2146957284,2147514870,2147296118,2147522002,2147089682,2146920365,2147712804,2147118976,179,-1,8,15731
1342955855,5805,1017.2999877929688000,204.4486999511718800,503.8442077636719000,7.4101800918579100,37.6944885253906250,51,103,99,79,81,14208,2146954998,2147517357,2147293129,2147524992,2147093632,2146923904,2147720082,2147115794,205,-1,8,23909
1342959455,5807,1014.4099731445312000,203.6396942138672000,502.4855957031250000,7.4523601531982420,37.7196502685546900,53,104,100,79,81,14199,2146959579,2147517760,2147292406,2147521700,2147089600,2146923629,2147717888,2147115693,537,-1,8,30079
1342963055,5807,1018.7800292968750000,203.5122070312500000,502.4898986816406000,7.4522271156311035,37.7278709411621100,53,102,99,79,81,14208,2146954258,2147518281,2147295213,2147520905,2147094491,2146920548,2147718564,2147115968,612,-1,8,10823
1342966655,5803,1018.4000244140625000,203.4423065185547000,504.1809082031250000,7.3997278213500980,37.7608718872070300,52,102,100,79,81,14207,2146955309,2147515904,2147293513,2147521828,2147092772,2146919762,2147719881,2147117778,3309,-1,8,53581
1342970255,5807,1017.7700195312500000,204.4582977294922000,503.8558959960937500,7.4098172187805180,37.6938209533691400,53,105,104,80,81,14206,2146958427,2147518326,2147293540,2147523922,2147095442,2146916187,2147720210,2147119314,3082,-1,8,49623
1342973855,5805,1027.3800048828125000,203.5971069335937500,500.6968078613281000,7.5078740119934080,37.6908683776855500,53,103,100,79,81,14203,2146957760,2147513673,2147297874,2147522413,2147094080,2146918427,2147719433,2147117878,1574,-1,8,20882
1342977455,5803,1021.4600219726562000,204.0312957763672000,503.5405883789062500,7.4196071624755860,37.7148704528808600,53,102,100,79,82,14207,2146957385,2147515337,2147293357,2147520374,2147090112,2146917449,2147716041,2147115264,1481,-1,8,43447
1342981055,5807,1023.0999755859375000,204.0316009521484400,502.6611022949219000,7.4469118118286130,37.6995506286621100,53,102,100,80,81,14204,2146955154,2147517312,2147293796,2147522880,2147094784,2146917229,2147717174,2147121088,1770,-2,8,25689
1342984655,5806,1021.4500122070312000,204.1822052001953000,503.2839965820312500,7.4275732040405270,37.7011108398437500,52,103,100,79,81,14206,2146955337,2147515840,2147296201,2147522870,2147095149,2146920630,2147717458,2147116809,1794,-2,8,32089
1342988255,5805,1017.5399780273438000,204.7095031738281200,504.5122985839844000,7.3894357681274410,37.6904792785644500,53,103,101,79,81,14204,2146957229,2147518628,2147296246,2147522715,2147090496,2146919670,2147719798,2147115227,1719,-1,8,15708
1342991855,5804,1017.0100097656250000,205.1204071044922000,505.0364990234375000,7.3731570243835450,37.6748695373535160,52,102,101,80,81,14204,2146955776,2147518756,2147292955,2147522331,2147093833,2146916525,2147722486,2147117211,2106,-2,8,43555
1342995455,5807,1017.1199951171875000,204.2052001953125000,504.7745056152344000,7.3812918663024900,37.7252693176269500,52,102,100,79,82,14200,2146955876,2147512146,2147293942,2147520978,2147092288,2146915849,2147721133,2147117430,336,-1,8,3026
1342999055,5805,1023.0700073242188000,204.4553985595703000,504.9187927246094000,7.3768129348754880,37.7129096984863300,52,107,100,80,82,14201,2146956726,2147515309,2147296685,2147524114,2147094537,2146921426,2147716790,2147118281,884,-1,8,46792
1343002655,5805,1021.2999877929688000,205.7324981689453000,505.2633972167969000,7.3661088943481445,37.6423301696777340,53,102,101,80,82,14201,2146956480,2147518454,2147294464,2147522221,2147089152,2146917110,2147716754,2147116361,2465,-2,8,9027
1343006255,5803,1024.7299804687500000,205.2940979003906200,504.7222900390625000,7.3829150199890140,37.6587104797363300,52,104,99,80,81,14197,2146954669,2147518180,2147292406,2147525641,2147092864,2146915629,2147718244,2147120932,2497,-2,8,16944
1343009855,5807,1022.4299926757812000,204.7832946777343800,504.9881896972656000,7.3746547698974610,37.6949310302734400,52,105,100,79,81,14198,2146955364,2147517942,2147296210,2147521920,2147091273,2146922276,2147716653,2147118436,62,-1,8,5159
1343013455,5808,1026.0899658203125000,205.3578033447265600,505.0791015625000000,7.3718338012695310,37.6614303588867200,53,104,100,81,81,14202,2146956845,2147514678,2147295204,2147522459,2147094034,2146918994,2147720164,2147116032,3589,-2,8,1287
1343017055,5806,1027.9699707031250000,204.9040985107422000,504.2672119140625000,7.3970460891723630,37.6747589111328100,53,112,100,79,81,14202,2146958957,2147514916,2147292973,2147520649,2147091565,2146917668,2147717412,2147119588,3450,-1,8,55810
1343020655,5804,1023.0000000000000000,204.5037994384765600,504.5320129394531000,7.3888239860534670,37.7031517028808600,52,104,101,79,82,14200,2146957504,2147515840,2147296859,2147524681,2147091785,2146913499,2147716086,2147120192,3391,-1,8,21550
1343024255,5804,1026.8100585937500000,204.7048034667968800,504.5343933105469000,7.3887481689453125,37.6908111572265600,52,104,99,79,82,14198,2146955593,2147516434,2147296804,2147519945,2147091849,2146913536,2147721453,2147120731,3343,-2,8,44720
1343027855,5807,1025.7900390625000000,205.2259979248047000,504.7390136718750000,7.3823962211608890,37.6637611389160160,52,103,100,79,82,14195,2146956406,2147514112,2147294646,2147522477,2147093339,2146917897,2147722185,2147118738,379,-2,8,61972
1343031455,5807,1028.2399902343750000,204.8119964599609400,504.2781066894531000,7.3967080116271970,37.6804008483886700,52,105,100,81,81,14201,2146958089,2147516864,2147295332,2147524644,2147094290,2146913106,2147717741,2147118253,232,-1,8,46787
1343035055,5806,1027.3800048828125000,204.7633972167968800,504.6648864746094000,7.3846950531005860,37.6903190612793000,52,102,100,78,80,14192,2146957613,2147516534,2147296758,2147525568,2147092251,2146915254,2147715785,2147117147,3426,-1,8,33406
1343038655,5806,1022.4699707031250000,205.2037048339843800,505.0137023925781000,7.3738651275634770,37.6698188781738300,53,106,99,78,82,14192,2146957641,2147517714,2147297252,2147522825,2147093531,2146916498,2147718006,2147117449,735,-2,8,47408
1343042255,5806,1023.5599975585938000,205.6860046386718800,505.9641113281250000,7.3443431854248050,37.6571807861328100,52,103,100,77,81,14189,2146958125,2147515849,2147295661,2147521728,2147093229,2146918710,2147716909,2147119945,404,-2,8,47397
1343045855,5805,1020.9299926757812000,207.5272979736328000,506.6741943359375000,7.3222842216491700,37.5596885681152340,53,102,100,79,81,14190,2146959259,2147519341,2147297142,2147526317,2147093888,2146916809,2147720905,2147115620,1596,-1,8,35025
1343049455,5808,1026.1500244140625000,205.5820007324218800,505.5103149414062500,7.3584380149841310,37.6552696228027340,53,106,99,80,82,14190,2146957449,2147515757,2147296813,2147525330,2147091922,2146923209,2147720932,2147117184,3313,-2,8,37102
1343051454,5804,1025.8000488281250000,203.7747039794922000,506.1247863769531000,7.3393521308898930,37.7749099731445300,52,102,101,78,81,14207,2146959222,2147520100,2147294418,2147524955,2147092397,2146919149,2147722258,2147119305,3379,-1,8,22704
